Lid_Strength_Index
0 -0 -0 -0 -0 -0 0 -0 -0 -0 -0 0 0 0 0 1 1 1 3 1 -0 -3 -1 0 1 1 2 4 4 4 7 8 8 9 8 5 6 4 4 5 4 4 4 3 2
0 0 -0 -0 -0 -0 0 0 0 -0 -0 0 0 1 1 1 2 2 -1 -2 -2 -3 1 2 4 3 5 5 5 5 7 8 5 6 7 6 5 6 6 6 6 5 3 2 2
0 0 0 -0 0 0 0 0 0 0 0 0 1 1 1 1 3 3 -3 -2 -2 -2 2 2 3 3 6 5 5 5 7 6 5 5 4 5 5 4 6 7 5 6 5 4 3
1 0 0 0 1 0 1 1 1 0 0 1 1 2 2 2 7 1 -2 -2 -2 -0 2 3 3 5 7 7 4 6 6 7 5 4 5 5 4 6 5 5 3 4 3 3 4
1 1 1 1 1 1 1 1 1 1 1 1 2 2 2 4 3 -0 -2 -1 -0 2 3 3 4 5 7 5 5 6 7 7 6 4 4 4 6 5 5 4 3 3 3 4 3
2 1 1 1 1 1 1 1 1 1 2 2 2 2 3 6 0 -1 -1 -0 2 2 2 2 3 3 5 6 6 6 7 7 7 6 6 5 5 5 4 4 4 4 4 3 3
2 1 1 1 1 1 1 1 1 2 2 2 3 2 3 3 0 -1 -1 0 1 2 2 1 3 4 4 6 6 6 7 7 7 5 7 5 6 6 5 4 5 4 4 3 3
1 1 1 2 2 2 2 1 2 2 2 3 3 3 4 -0 -1 -0 -0 1 1 1 2 2 2 4 5 5 6 7 6 8 7 6 7 6 8 6 4 5 5 5 4 4 3
1 1 2 2 2 2 2 2 2 3 3 3 3 3 5 -0 2 1 1 3 2 2 2 3 3 5 5 7 8 8 10 9 8 6 5 6 8 6 5 5 5 5 4 4 3
1 2 2 2 2 2 2 3 3 3 2 2 2 5 3 4 2 2 1 2 3 3 4 5 5 6 6 8 11 10 9 8 8 7 6 7 7 6 5 5 5 5 4 4 4
2 1 2 2 2 3 3 2 3 4 3 4 5 4 4 1 1 3 2 2 2 4 6 5 7 8 8 7 7 7 8 8 7 7 7 8 7 7 6 6 6 5 5 4 4
2 2 2 2 2 3 2 3 2 2 6 3 3 3 2 2 4 3 1 4 4 7 6 7 8 7 6 7 7 7 8 9 8 7 7 8 8 7 6 6 5 5 5 4 4
2 1 2 2 3 3 2 4 1 1 6 5 3 4 3 2 4 5 3 4 5 6 6 8 7 6 6 7 8 8 8 9 9 8 7 7 9 8 7 6 5 5 4 4 4
2 2 2 3 4 1 4 1 2 1 7 7 5 4 3 3 5 2 2 4 5 7 7 7 6 7 7 8 7 9 7 7 9 9 11 8 12 9 8 8 6 6 5 4 4
2 2 3 3 1 3 1 -1 -0 1 14 6 5 2 3 5 4 4 2 4 7 7 7 8 7 7 8 8 7 9 7 8 8 9 9 10 11 10 8 9 8 6 5 4 4
2 2 3 3 1 0 -0 -0 1 10 14 8 5 6 6 5 5 4 4 3 4 6 6 7 5 6 7 6 6 6 7 8 8 9 13 10 10 10 10 8 7 6 5 4 4
2 2 2 1 2 -1 -1 2 9 12 7 8 7 6 6 7 7 6 6 7 8 10 10 8 8 6 6 8 6 7 9 12 13 14 14 10 11 9 7 7 6 6 5 4 4
2 2 2 1 -1 0 1 6 12 9 8 6 6 6 8 7 7 7 7 8 7 7 9 10 12 7 6 7 8 8 9 12 16 16 12 10 12 8 6 5 5 5 4 4 4
3 2 3 1 1 1 4 11 10 9 7 7 7 8 9 8 7 8 8 8 7 7 9 10 11 6 6 6 7 9 10 8 13 12 14 11 10 7 7 6 6 5 5 4 4
2 3 2 -1 -0 2 7 10 8 7 6 6 9 8 10 8 8 8 8 7 8 6 6 8 11 8 7 6 6 7 7 11 11 17 17 12 12 10 9 8 6 6 5 4 4
2 5 2 -1 1 5 10 8 7 6 6 7 8 8 8 9 8 8 8 8 7 7 6 7 9 10 8 9 9 9 9 9 9 11 13 14 11 7 8 7 7 6 5 4 4
3 7 1 1 7 6 8 7 7 7 5 6 6 7 8 8 8 9 9 8 6 6 8 7 8 12 10 7 6 7 8 8 11 13 12 13 11 6 6 6 5 5 5 4 4
5 5 1 3 10 9 7 7 6 7 6 7 7 7 7 8 10 9 8 6 6 6 8 7 10 13 12 9 7 9 8 8 9 10 13 16 11 6 6 6 5 5 5 4 4
4 9 5 4 4 6 7 7 7 6 6 6 7 7 8 9 8 10 9 7 6 6 8 6 9 11 13 11 9 10 9 8 8 12 11 11 9 7 6 6 6 5 4 4 4
4 6 5 10 7 6 6 6 7 8 6 6 7 7 8 10 10 10 8 8 7 8 7 7 10 10 10 10 9 9 9 9 9 9 11 9 9 7 6 6 5 5 5 5 5
6 6 5 6 5 6 7 7 7 7 7 8 8 7 7 9 8 10 8 8 8 7 8 7 11 10 12 10 9 10 8 8 8 8 9 8 9 5 5 5 5 5 5 5 5
2 2 4 8 6 7 7 7 7 6 7 6 6 7 8 8 6 6 5 6 6 8 9 9 11 11 13 11 11 14 10 8 8 8 8 10 7 6 6 6 5 5 5 5 5